Location: Kerguer�zec
(48.4509°N, 4.7600°W)
Time: 00:43:50
(UTC+00:00)

N. Korean satellite - Pass Details

Date: 11 March 2021
Orbit: 453 x 499 km, 97.2° (Epoch: 11 April)

Event Time Altitude Azimuth Distance (km) Brightness Sun altitude
Rises 04:56:23 0° 26° (NNE) 2,552 10.8 -17.9°
Reaches altitude 10° 04:58:51 10° 44° (NE) 1,676 10.2 -17.5°
Maximum altitude 05:01:35 20° 93° (E) 1,177 9.4 -17.1°
Drops below altitude 10° 05:04:20 10° 143° (SE) 1,683 9.6 -16.7°
Sets 05:06:49 0° 160° (SSE) 2,566 10.3 -16.3°
